[[{"header":{"parameterUnit":"m.s-1","parameterCategory":1,"la1":30.2991,"la2":30.254,"lo1":-89.0895,"lo2":-89.0444,"dy":0.0017,"dx":0.0017,"nx":28,"ny":28,"refTime":"2023-11-16T09:00:00:Z","depth":0,"parameterNumber":2,"parameterNumberName":"U-component_of_WINDS"},"data":[0,0,0,0,0,0,0,0,0,0,0,0,0,0,0,0,0,0,0,0,0,0,0,0,0,0,0,0,0,0,0,0,0,0,0,0,0,0,0,0,0,0,0,0,0,0,0,0,0,0,0,0,0,0,0,0,0,0,-5.2124,-5.2126,0,-5.2284,-5.2285,-5.2287,-5.2215,-5.2211,-5.2208,-5.2204,-5.237,-5.2378,-5.2386,0,0,0,0,0,0,0,0,0,0,0,0,0,-5.176,-5.1767,-5.2124,-5.2126,-5.2128,-5.2283,-5.2286,-5.2288,-5.2216,-5.2211,-5.2207,-5.2202,-5.2367,-5.2377,-5.2387,0,0,0,0,0,0,0,0,0,0,0,0,0,-5.1919,-5.1769,-5.2124,-5.2111,-5.2111,-5.2283,-5.2286,-5.2288,-5.2217,-5.2211,-5.2205,-5.22,-5.2364,-5.2376,-5.2388,-5.2582,0,0,-5.2425,-5.2431,0,0,0,0,0,0,0,0,-5.191,-5.1932,-5.2111,-5.2112,-5.2113,-5.2223,-5.2218,-5.2387,-5.2219,-5.2177,-5.2204,-5.2197,-5.2326,-5.2341,-5.2384,-5.259,-5.2597,-5.2426,-5.2434,-5.2439,-5.2442,0,0,0,0,0,0,0,-5.1899,-5.1925,-5.2187,-5.2113,-5.2115,-5.2098,-5.2114,-5.225,-5.2283,-5.218,-5.2175,-5.2195,-5.2326,-5.2373,-5.2388,-5.26,-5.2426,-5.2437,-5.2444,-5.2449,-5.2975,-5.2981,0,0,0,0,0,0,-5.1888,-5.1916,-5.2182,-5.2192,-5.1995,-5.211,-5.2127,-5.2194,-5.2281,-5.2289,-5.22,-5.2191,-5.2355,-5.2374,-5.2393,-5.2628,-5.2439,-5.245,-5.2457,-5.2968,-5.2976,-5.2984,0,0,0,0,0,0,-5.188,-5.1912,-5.2176,-5.2053,-5.2085,-5.2122,-5.2198,-5.22,-5.2247,-5.2296,-5.2302,-5.2242,-5.2351,-5.2376,-5.2536,-5.2633,-5.2456,-5.2467,-5.2961,-5.2971,-5.298,-5.3099,0,0,0,0,0,0,-5.187,-5.191,-5.1983,-5.2055,-5.2092,-5.2315,-5.2203,-5.2208,-5.2268,-5.2258,-5.2337,-5.2345,-5.2348,-5.2518,-5.2548,-5.2646,-5.2476,-5.2952,-5.2965,-5.2977,-5.3086,-5.3111,-5.3133,0,0,0,0,0,-5.1857,-5.2011,-5.1987,-5.202,-5.2184,-5.2321,-5.2342,-5.2342,-5.2276,-5.2351,-5.2383,-5.2342,-5.2617,-5.2535,-5.2568,-5.2672,-5.2946,-5.2961,-5.2976,-5.3076,-5.3106,-5.3132,0,0,0,0,0,0,-5.195,-5.202,-5.1995,-5.2175,-5.2243,-5.2308,-5.2403,-5.2374,-5.2463,-5.245,-5.2447,-5.2465,-5.2632,-5.2667,-5.2575,-5.2865,-5.2772,-5.2794,-5.2836,-5.2866,-5.2889,-5.2878,-5.2487,0,0,0,0,0,-5.1991,-5.2095,-5.2151,-5.2305,-5.234,-5.2366,-5.2425,-5.242,-5.2489,-5.2518,-5.2561,-5.2632,-5.2734,-5.2801,-5.2898,-5.309,-5.3108,-5.3178,-5.3201,-5.322,-5.324,-5.3347,-5.3379,-5.3033,-5.3033,-5.3032,0,0,-5.2078,-5.2129,-5.2195,-5.2325,-5.2376,-5.2486,-5.239,-5.2509,-5.2591,-5.2536,-5.269,-5.2725,-5.2803,-5.2981,-5.3061,-5.3016,-5.3339,-5.3239,-5.3254,-5.3264,-5.3366,-5.3398,-5.3428,-5.3043,-5.3041,-5.304,0,0,-5.2292,-5.234,-5.2475,-5.2528,-5.2607,-5.2623,-5.2656,-5.2726,-5.2747,-5.2901,-5.2863,-5.296,-5.3136,-5.3194,-5.3247,-5.3484,-5.3451,-5.3515,-5.3638,-5.3742,-5.3769,-5.3794,-5.3881,-5.3911,-5.3535,-5.3535,-5.3535,0,-5.239,-5.2552,-5.2547,-5.2671,-5.273,-5.2684,-5.2822,-5.2874,-5.2981,-5.3024,-5.2971,-5.3191,-5.3241,-5.3432,-5.349,-5.3534,-5.3572,-5.3507,-5.3766,-5.379,-5.3812,-5.3895,-5.3928,-5.3542,-5.3542,-5.3541,-5.354,0,-5.267,-5.2783,-5.2882,-5.2987,-5.3057,-5.3186,-5.3203,-5.3274,-5.3263,-5.3285,-5.3444,-5.3502,-5.361,-5.3655,-5.3644,-5.3846,-5.3816,-5.3764,-5.3671,-5.3853,-5.3931,-5.3963,-5.3553,-5.3551,-5.3548,-5.3546,0,0,-5.2947,-5.3048,-5.3085,-5.3132,-5.3216,-5.3304,-5.3432,-5.3538,-5.3601,-5.3676,-5.3784,-5.3935,-5.3888,-5.3948,-5.3944,-5.4035,-5.4222,-5.3973,-5.3974,-5.4019,-5.445,-5.449,-5.4526,-5.4199,-5.4205,-5.421,-5.4444,0,-5.3169,-5.3393,-5.3393,-5.36,-5.3706,-5.3665,-5.3776,-5.3841,-5.3866,-5.396,-5.3986,-5.4094,-5.4023,-5.4059,-5.4147,-5.418,-5.4309,-5.4163,-5.4303,-5.4308,-5.4287,-5.4567,-5.4609,-5.4827,-5.4474,-5.4479,-5.4483,0,-5.3458,-5.3543,-5.3761,-5.3831,-5.3875,-5.3976,-5.4073,-5.4163,-5.4236,-5.4247,-5.4315,-5.4297,-5.4429,-5.433,-5.4513,-5.4414,-5.4471,-5.4496,-5.4504,-5.4519,-5.4408,-5.4591,-5.4896,-5.493,-5.4531,-5.4527,-5.4523,0,-5.3642,-5.381,-5.3963,-5.4004,-5.4089,-5.4162,-5.42,-5.4267,-5.4331,-5.4417,-5.4459,-5.4558,-5.4614,-5.4692,-5.4703,-5.4629,-5.4888,-5.4789,-5.4903,-5.4903,-5.4961,-5.4958,-5.5282,-5.4994,-5.4994,-5.4993,-5.4992,0,-5.3891,-5.4026,-5.4047,-5.4141,-5.4292,-5.4291,-5.4441,-5.4474,-5.4534,-5.4635,-5.4604,-5.47,-5.4707,-5.4805,-5.4814,-5.4966,-5.4991,-5.5005,-5.5006,-5.5009,-5.5008,-5.5048,-5.5034,-5.5002,-5.5,-5.4998,-5.4997,0,-5.4122,-5.4141,-5.4305,-5.4372,-5.4392,-5.4501,-5.4559,-5.4649,-5.467,-5.4799,-5.4829,-5.4863,-5.4978,-5.4995,-5.513,-5.5136,-5.5318,-5.5303,-5.5294,-5.5293,-5.5407,-5.5397,-5.577,-5.582,-5.5498,-5.5501,-5.5503,0,-5.4281,-5.4384,-5.4463,-5.4528,-5.4571,-5.4676,-5.4741,-5.4744,-5.4814,-5.4905,-5.4985,-5.5097,-5.5186,-5.5371,-5.5409,-5.5512,-5.5501,-5.5624,-5.5516,-5.5516,-5.5505,-5.55,-5.5512,-5.5646,-5.5649,-5.5652,-5.5654,0,-5.4562,-5.4566,-5.4661,-5.476,-5.4838,-5.4917,-5.499,-5.5045,-5.5058,-5.5138,-5.5255,-5.5324,-5.5462,-5.5574,-5.5676,-5.5717,-5.569,-5.5688,-5.572,-5.5725,-5.5717,-5.5726,-5.5353,-5.568,-5.5677,-5.5675,-5.5674,-5.5673,-5.4763,-5.4854,-5.4924,-5.5031,-5.5086,-5.5156,-5.5245,-5.5278,-5.5375,-5.5487,-5.5483,-5.5612,-5.5683,-5.5818,-5.5866,-5.5968,-5.5928,-5.5975,-5.5987,-5.5999,-5.6011,-5.5699,-5.5987,-5.5986,-5.5985,-5.5985,-5.5984,0,-5.5044,-5.5087,-5.5186,-5.529,-5.5375,-5.5339,-5.5419,-5.5493,-5.5607,-5.5675,-5.5764,-5.5899,-5.6008,-5.6054,-5.6161,-5.6234,-5.6224,-5.6262,-5.6258,-5.6269,-5.604,-5.6002,-5.6269,-5.6269,-5.6269,-5.6268,-5.6268,-5.6268,-5.5201,-5.5353,-5.5366,-5.5546,-5.5588,-5.5714,-5.5763,-5.5828,-5.5883,-5.6035,-5.6125,-5.6154,-5.6214,-5.6326,-5.6424,-5.6435,-5.6477,-5.6522,-5.6528,-5.6313,-5.6284,-5.6257,-5.6222,-5.653,-5.6531,-5.6748,-5.675,-5.6752]},{"header":{"parameterUnit":"m.s-1","parameterCategory":1,"la1":30.2991,"la2":30.254,"lo1":-89.0895,"lo2":-89.0444,"dy":0.0017,"dx":0.0017,"nx":28,"ny":28,"refTime":"2023-11-16T09:00:00:Z","depth":0,"parameterNumber":3,"parameterNumberName":"V-component_of_WINDS"},"data":[0,0,0,0,0,0,0,0,0,0,0,0,0,0,0,0,0,0,0,0,0,0,0,0,0,0,0,0,0,0,0,0,0,0,0,0,0,0,0,0,0,0,0,0,0,0,0,0,0,0,0,0,0,0,0,0,0,0,-4.7756,-4.7756,0,-4.7739,-4.7739,-4.7739,-4.7649,-4.7647,-4.7644,-4.7642,-4.7626,-4.7628,-4.7629,0,0,0,0,0,0,0,0,0,0,0,0,0,-4.7712,-4.7713,-4.7756,-4.7756,-4.7756,-4.7739,-4.7739,-4.7739,-4.7649,-4.7646,-4.7644,-4.7641,-4.7626,-4.7628,-4.763,0,0,0,0,0,0,0,0,0,0,0,0,0,-4.7717,-4.7713,-4.7756,-4.7709,-4.7705,-4.7739,-4.7739,-4.7739,-4.765,-4.7646,-4.7643,-4.764,-4.7625,-4.7628,-4.763,-4.7709,0,0,-4.7637,-4.7638,0,0,0,0,0,0,0,0,-4.7716,-4.7718,-4.7716,-4.7712,-4.7707,-4.7693,-4.7717,-4.7729,-4.765,-4.7671,-4.7642,-4.7639,-4.7651,-4.7651,-4.7655,-4.7708,-4.7708,-4.7637,-4.7639,-4.764,-4.764,0,0,0,0,0,0,0,-4.7716,-4.7719,-4.7749,-4.7716,-4.7711,-4.7689,-4.7686,-4.7719,-4.7679,-4.7669,-4.7662,-4.7661,-4.7648,-4.7653,-4.7654,-4.7707,-4.7637,-4.7639,-4.7641,-4.7642,-4.7823,-4.7827,0,0,0,0,0,0,-4.7722,-4.7719,-4.775,-4.7749,-4.7704,-4.7692,-4.7689,-4.7701,-4.7679,-4.7672,-4.7664,-4.7657,-4.7651,-4.7651,-4.7653,-4.7744,-4.764,-4.7642,-4.7643,-4.782,-4.7824,-4.7828,0,0,0,0,0,0,-4.7722,-4.7726,-4.7751,-4.7732,-4.7733,-4.7696,-4.771,-4.7702,-4.7707,-4.7675,-4.7668,-4.7676,-4.7648,-4.765,-4.7695,-4.7742,-4.7643,-4.7645,-4.7816,-4.7821,-4.7826,-4.7926,0,0,0,0,0,0,-4.7721,-4.7726,-4.7756,-4.7733,-4.7735,-4.7793,-4.7713,-4.7704,-4.7711,-4.7702,-4.7685,-4.7679,-4.7646,-4.7692,-4.7698,-4.7743,-4.7647,-4.7812,-4.7818,-4.7824,-4.7918,-4.7934,-4.7947,0,0,0,0,0,-4.772,-4.7785,-4.7758,-4.7762,-4.7771,-4.7796,-4.7797,-4.7757,-4.7715,-4.7745,-4.7724,-4.7679,-4.7736,-4.7698,-4.7703,-4.775,-4.7809,-4.7817,-4.7824,-4.7912,-4.7931,-4.7947,0,0,0,0,0,0,-4.7815,-4.7782,-4.7751,-4.7811,-4.7807,-4.7781,-4.7817,-4.7779,-4.7787,-4.7778,-4.7729,-4.7726,-4.7779,-4.7769,-4.7727,-4.7825,-4.7765,-4.7774,-4.783,-4.7847,-4.7861,-4.7863,-4.7649,0,0,0,0,0,-4.7843,-4.7866,-4.7835,-4.7892,-4.7891,-4.7855,-4.7864,-4.7834,-4.7828,-4.7826,-4.7809,-4.7805,-4.7822,-4.7834,-4.7848,-4.7916,-4.7911,-4.7951,-4.7966,-4.7978,-4.7986,-4.8021,-4.8039,-4.7853,-4.7853,-4.7853,0,0,-4.7901,-4.7886,-4.7903,-4.791,-4.7904,-4.7929,-4.7854,-4.7884,-4.7902,-4.783,-4.7872,-4.786,-4.7852,-4.791,-4.7934,-4.7903,-4.8036,-4.7987,-4.7997,-4.7999,-4.8031,-4.8048,-4.8064,-4.7858,-4.7857,-4.7857,0,0,-4.802,-4.8011,-4.8056,-4.8051,-4.8041,-4.8016,-4.8027,-4.8007,-4.7995,-4.8036,-4.7983,-4.8004,-4.8034,-4.8031,-4.8033,-4.815,-4.8109,-4.8156,-4.8231,-4.8266,-4.828,-4.8293,-4.8335,-4.835,-4.8164,-4.8165,-4.8165,0,-4.8094,-4.8129,-4.8084,-4.8117,-4.8122,-4.8058,-4.8103,-4.81,-4.8096,-4.8101,-4.8066,-4.8102,-4.8092,-4.8148,-4.8176,-4.818,-4.8191,-4.8158,-4.8282,-4.8294,-4.8305,-4.8344,-4.836,-4.817,-4.817,-4.8169,-4.8169,0,-4.822,-4.8245,-4.8283,-4.8279,-4.8288,-4.8327,-4.8289,-4.8303,-4.8272,-4.8251,-4.8293,-4.8279,-4.8289,-4.83,-4.827,-4.8351,-4.8332,-4.829,-4.8229,-4.8329,-4.8365,-4.838,-4.8179,-4.8176,-4.8175,-4.8173,0,0,-4.8399,-4.8369,-4.8384,-4.8381,-4.8366,-4.8384,-4.8421,-4.8429,-4.8442,-4.8442,-4.847,-4.8497,-4.8458,-4.8461,-4.843,-4.8461,-4.8554,-4.8415,-4.8414,-4.8441,-4.8642,-4.8673,-4.8691,-4.8526,-4.8529,-4.8531,-4.8642,0,-4.8512,-4.8571,-4.8532,-4.8598,-4.862,-4.8559,-4.8591,-4.8585,-4.8566,-4.8582,-4.8561,-4.8581,-4.8528,-4.8529,-4.8557,-4.8537,-4.8593,-4.8528,-4.8553,-4.8554,-4.8557,-4.871,-4.8743,-4.8849,-4.8656,-4.8658,-4.866,0,-4.8653,-4.8657,-4.8725,-4.8704,-4.8712,-4.8741,-4.8745,-4.8761,-4.8753,-4.8737,-4.874,-4.8701,-4.8735,-4.8674,-4.8721,-4.8677,-4.8685,-4.8677,-4.868,-4.868,-4.8613,-4.8715,-4.8882,-4.8898,-4.8682,-4.868,-4.8678,0,-4.8776,-4.8799,-4.8842,-4.8842,-4.8818,-4.884,-4.8831,-4.882,-4.8827,-4.8831,-4.8836,-4.8844,-4.8849,-4.8856,-4.8821,-4.878,-4.8872,-4.8808,-4.886,-4.8861,-4.8882,-4.8881,-4.9053,-4.8888,-4.8887,-4.8887,-4.8887,0,-4.8907,-4.8951,-4.8897,-4.8924,-4.8971,-4.8925,-4.8974,-4.8958,-4.8949,-4.8972,-4.892,-4.8942,-4.8894,-4.8912,-4.8885,-4.8927,-4.893,-4.8918,-4.891,-4.8923,-4.8924,-4.8927,-4.8919,-4.8891,-4.889,-4.8889,-4.8889,0,-4.9053,-4.9019,-4.9062,-4.9036,-4.903,-4.9066,-4.9044,-4.9068,-4.9045,-4.9074,-4.9079,-4.9044,-4.9062,-4.9027,-4.9041,-4.9023,-4.9082,-4.9063,-4.9085,-4.9079,-4.9133,-4.9128,-4.9312,-4.9334,-4.9155,-4.9157,-4.9158,0,-4.9139,-4.9171,-4.9148,-4.9159,-4.9153,-4.9172,-4.9178,-4.9134,-4.9144,-4.9137,-4.9161,-4.9175,-4.9184,-4.9216,-4.9192,-4.9202,-4.9183,-4.9246,-4.9184,-4.9196,-4.9184,-4.9182,-4.9185,-4.926,-4.9262,-4.9263,-4.9265,0,-4.9294,-4.9275,-4.9287,-4.9293,-4.9302,-4.9305,-4.9304,-4.9316,-4.9269,-4.9283,-4.93,-4.9307,-4.9321,-4.9335,-4.934,-4.9331,-4.9291,-4.9285,-4.9297,-4.931,-4.9322,-4.9316,-4.912,-4.9281,-4.9279,-4.9278,-4.9277,-4.9276,-4.9412,-4.9438,-4.9425,-4.944,-4.9434,-4.9434,-4.9455,-4.9434,-4.9448,-4.9455,-4.9428,-4.9452,-4.9442,-4.9444,-4.944,-4.9458,-4.9429,-4.9448,-4.9452,-4.9457,-4.9466,-4.9319,-4.9458,-4.9458,-4.9458,-4.9457,-4.9457,0,-4.9565,-4.9554,-4.9567,-4.9567,-4.9578,-4.9538,-4.9535,-4.9547,-4.9568,-4.9562,-4.9571,-4.9592,-4.9605,-4.9582,-4.9592,-4.9611,-4.9592,-4.9615,-4.9613,-4.9612,-4.9491,-4.9479,-4.9629,-4.9629,-4.9629,-4.9629,-4.9629,-4.9629,-4.9646,-4.9686,-4.9666,-4.9703,-4.9691,-4.9713,-4.9715,-4.9715,-4.971,-4.9734,-4.9744,-4.9729,-4.9716,-4.9724,-4.9735,-4.9728,-4.9734,-4.9763,-4.975,-4.9637,-4.962,-4.9604,-4.9593,-4.9765,-4.9765,-4.9869,-4.987,-4.987]}]]